Showing default

PARASOL, 28498

Orbit data source: Space-Track

PARASOL, 28498 is a payload satellite owned by CNES (FR) in SSO that was launched on Sat, 18 Dec 2004 UTC via an ARIANE 5G+ launch vehicle from the French Guiana (FRGUI). Payload-class satellites include a variety of spacecraft equipped with specific instruments for various scientific and technological missions. These include communications satellites like Starlink; space stations such as the ISS; scientific satellites like the Hubble; Earth observation satellites from companies like Planet Labs, Umbra, and HawkEye 360; GPS; miniature CubeSats for education and research; and military/defense satellites.

Loading next visibility...
Identifier
28498, 2004-049G
Orbit
SSO
Country
Flag of FRFR
Related business
Manufacturer
EADS/Bremen
Mission
Non-operational Civil Science
Bus & Motor
MYRIADE, Unknown motor
Mass
110 kg wet, 110 kg dry
Launch date (UTC)
2004-12-18 (22 years ago)
Launch vehicle
ARIANE 5G+
Launch site
French Guiana (FRGUI)
Object type
Payload
Rocket body
Debris
Shape & HBR
Box + 1 Pan, 12.9 m
Radar Cross Section
0.607 m², Medium (>0.1 m² and < 1m²)

Expand to show TLE details & history
Last TLE update: 2 days ago

TLE from 2 days ago
0 PARASOL
1 28498U 04049G   26171.47910066  .00000511  00000-0  84975-4 0  9992
2 28498  98.5031   3.3870 0014543  19.5328 340.6433 14.74628593149720
Epoch: 2026-06-20T11:29Z
TLE epoch observation values (Epoch: 2026-06-20T11:29:54.297Z)
Latitude
-0.00004°
Longitude
-77.78237°
Altitude
639.687 km
Speed
7.543 km/s
True Right ascension
00h 13m 32s
True Declination
0° 00' 00"
Sunlit
Object was in daylight at epoch
Visualization orbit readout
Latitude
Unknown
Longitude
Unknown
Altitude
Unknown
Speed
Unknown
Apparent Right ascension
Unknown
Apparent Declination
Unknown
Sunlit
N/A
Visualization observer readout
Local Sidereal Time
23:08:25
Azimuth
Unknown
Elevation
Unknown
Doppler factor
Unknown
Orbital elements
Apogee altitude
653.618 km
Perigee altitude
633.195 km
Semi-major axis
7,021.543 km
Eccentricity
0.00145
Inclination
98.5031°
RAAN
3.387°
Arg. of periapsis
19.5328°
True anomaly
340.58797°
Mean anomaly
340.6433°
Eccentric anomaly
340.61564°
Mean motion
3.68888 °/min
Orbital period
97.59 mins
BSTAR
0.000084975
Loading maneuver chart data...
Computing Atmospheric mass density...
Loading historical data...
Loading historical data...
Loading historical data...
Loading historical data...
Loading historical data...
Loading historical data...
Loading historical data...

Documentation

Showing up to 5 results
|